When you browse on this site, cookies collect data to enhance your experience and personalize the content and advertising you see.
Visit our Privacy Policy to learn more. By continuing to use the site, you agree to this use of cookies and data.
  • In Spain
  • List of Countries
  • For 7 days
  • Water Temperature
  • Weather Map
  • Weather Widgets
  • user-avatar
    Login

    Hourly Weather Uige

    Today, 17 October, Thursday

    Time Temperature Precipitation Wind Pressure Humidity
    00:00 +21°C° 1 mm 0 mps 691 mmHg 92%
    01:00 +20°C° 0 mm 0 mps 691 mmHg 96%
    02:00 +20°C° 0.7 mm 0 mps 690 mmHg 96%
    03:00 +20°C° 0.7 mm 0 mps 690 mmHg 97%
    04:00 +20°C° 0.7 mm 0 mps 690 mmHg 98%
    05:00 +21°C° 1.3 mm 0 mps 691 mmHg 97%
    06:00 +21°C° 1.3 mm 0 mps 691 mmHg 97%
    07:00 +22°C° 0 mm 0 mps 692 mmHg 97%
    08:00 +23°C° 0.8 mm 0 mps 692 mmHg 91%
    09:00 +25°C° 0.8 mm 0 mps 692 mmHg 85%
    10:00 +26°C° 0.8 mm 0 mps 692 mmHg 79%
    11:00 +26°C° 1.9 mm 0 mps 692 mmHg 80%
    12:00 +28°C° 1.9 mm 1 mps 691 mmHg 82%
    13:00 +28°C° 1.9 mm 1 mps 690 mmHg 83%
    14:00 +27°C° 2.1 mm 1 mps 690 mmHg 85%
    15:00 +26°C° 2.1 mm 1 mps 689 mmHg 88%
    16:00 +25°C° 2.1 mm 2 mps 689 mmHg 90%
    17:00 +25°C° 0.2 mm 1 mps 689 mmHg 93%
    18:00 +24°C° 0.2 mm 1 mps 690 mmHg 95%
    19:00 +21°C° 0.2 mm 0 mps 691 mmHg 97%
    20:00 +21°C° 0.2 mm 0 mps 691 mmHg 98%
    21:00 +21°C° 0.2 mm 0 mps 691 mmHg 98%
    22:00 +20°C° 0.2 mm 0 mps 691 mmHg 98%
    23:00 +20°C° 0 mm 0 mps 691 mmHg 98%

    Tomorrow, 18 October, Friday

    Time Temperature Precipitation Wind Pressure Humidity
    00:00 +20°C° 0 mm 0 mps 691 mmHg 98%
    01:00 +20°C° 0 mm 0 mps 691 mmHg 98%
    02:00 +20°C° 0.1 mm 0 mps 691 mmHg 98%
    03:00 +20°C° 0.1 mm 0 mps 690 mmHg 98%
    04:00 +22°C° 0.1 mm 1 mps 690 mmHg 98%
    05:00 +22°C° 0.1 mm 1 mps 690 mmHg 97%
    06:00 +23°C° 0.1 mm 1 mps 691 mmHg 97%
    07:00 +23°C° 0.1 mm 1 mps 691 mmHg 97%
    08:00 +24°C° 0.1 mm 1 mps 691 mmHg 91%
    09:00 +25°C° 0.1 mm 1 mps 692 mmHg 86%
    10:00 +26°C° 0.1 mm 1 mps 692 mmHg 81%
    11:00 +27°C° 0.3 mm 1 mps 691 mmHg 77%
    12:00 +28°C° 0.3 mm 2 mps 691 mmHg 74%
    13:00 +29°C° 0.3 mm 2 mps 690 mmHg 70%
    14:00 +28°C° 1.5 mm 1 mps 690 mmHg 75%
    15:00 +27°C° 1.5 mm 1 mps 689 mmHg 80%
    16:00 +27°C° 1.5 mm 1 mps 688 mmHg 85%
    17:00 +26°C° 2.2 mm 1 mps 689 mmHg 87%
    18:00 +24°C° 2.2 mm 1 mps 689 mmHg 90%
    19:00 +23°C° 2.2 mm 1 mps 690 mmHg 93%
    20:00 +23°C° 1.2 mm 1 mps 690 mmHg 94%
    21:00 +23°C° 1.2 mm 1 mps 691 mmHg 96%
    22:00 +22°C° 1.2 mm 1 mps 691 mmHg 97%
    23:00 +22°C° 0.2 mm 1 mps 691 mmHg 98%

    Day after tomorrow, 19 October, Saturday

    Time Temperature Precipitation Wind Pressure Humidity
    00:00 +23°C° 0.2 mm 1 mps 691 mmHg 98%
    01:00 +23°C° 0.2 mm 1 mps 690 mmHg 98%
    02:00 +23°C° 0.1 mm 1 mps 690 mmHg 98%
    03:00 +23°C° 0.1 mm 1 mps 690 mmHg 97%
    04:00 +22°C° 0.1 mm 1 mps 690 mmHg 97%
    05:00 +23°C° 0.1 mm 1 mps 690 mmHg 96%
    06:00 +23°C° 0.1 mm 1 mps 691 mmHg 96%
    07:00 +23°C° 0.1 mm 1 mps 691 mmHg 95%
    08:00 +24°C° 0 mm 1 mps 691 mmHg 88%
    09:00 +26°C° 0 mm 1 mps 692 mmHg 81%
    10:00 +27°C° 0 mm 2 mps 692 mmHg 73%
    11:00 +27°C° 0.1 mm 2 mps 691 mmHg 72%
    12:00 +28°C° 0.1 mm 2 mps 690 mmHg 70%
    13:00 +28°C° 0.1 mm 2 mps 690 mmHg 68%
    14:00 +28°C° 0.5 mm 2 mps 689 mmHg 72%
    15:00 +27°C° 0.5 mm 1 mps 689 mmHg 76%
    16:00 +27°C° 0.5 mm 1 mps 689 mmHg 80%
    17:00 +26°C° 0.4 mm 1 mps 689 mmHg 85%
    18:00 +24°C° 0.4 mm 1 mps 690 mmHg 89%
    19:00 +23°C° 0.4 mm 1 mps 690 mmHg 94%
    20:00 +23°C° 0.1 mm 1 mps 690 mmHg 95%
    21:00 +23°C° 0.1 mm 1 mps 691 mmHg 96%
    22:00 +22°C° 0.1 mm 1 mps 691 mmHg 98%
    23:00 +22°C° 0 mm 1 mps 691 mmHg 98%

    20 October, Sunday

    Time Temperature Precipitation Wind Pressure Humidity
    00:00 +22°C° 0 mm 1 mps 691 mmHg 98%
    01:00 +22°C° 0 mm 1 mps 690 mmHg 98%
    02:00 +22°C° 0 mm 1 mps 690 mmHg 98%
    03:00 +22°C° 0 mm 1 mps 690 mmHg 98%
    04:00 +22°C° 0 mm 1 mps 690 mmHg 98%
    05:00 +22°C° 0.1 mm 1 mps 691 mmHg 98%
    06:00 +22°C° 0.1 mm 1 mps 691 mmHg 97%
    07:00 +23°C° 0.1 mm 1 mps 692 mmHg 97%
    08:00 +24°C° 0.1 mm 1 mps 692 mmHg 91%
    09:00 +25°C° 0.1 mm 1 mps 692 mmHg 85%
    10:00 +26°C° 0.1 mm 1 mps 692 mmHg 80%
    11:00 +27°C° 0.1 mm 1 mps 691 mmHg 75%
    12:00 +28°C° 0.1 mm 1 mps 691 mmHg 71%
    13:00 +28°C° 0.1 mm 1 mps 690 mmHg 67%
    14:00 +28°C° 0.3 mm 1 mps 690 mmHg 68%
    15:00 +28°C° 0.3 mm 1 mps 689 mmHg 70%
    16:00 +28°C° 0.3 mm 1 mps 689 mmHg 71%
    17:00 +26°C° 0.7 mm 1 mps 689 mmHg 78%
    18:00 +25°C° 0.7 mm 1 mps 689 mmHg 85%
    19:00 +22°C° 0.7 mm 0 mps 690 mmHg 92%
    20:00 +21°C° 0.6 mm 0 mps 690 mmHg 93%
    21:00 +21°C° 0.6 mm 0 mps 691 mmHg 95%
    22:00 +21°C° 0.6 mm 0 mps 691 mmHg 96%
    23:00 +21°C° 1.9 mm 0 mps 691 mmHg 96%

    21 October, Monday

    Time Temperature Precipitation Wind Pressure Humidity
    00:00 +21°C° 1.9 mm 0 mps 691 mmHg 96%
    01:00 +20°C° 1.9 mm 0 mps 690 mmHg 96%
    02:00 +20°C° 0.3 mm 0 mps 690 mmHg 97%
    03:00 +20°C° 0.3 mm 0 mps 690 mmHg 97%
    04:00 +20°C° 0.3 mm 0 mps 690 mmHg 97%
    05:00 +20°C° 0 mm 0 mps 691 mmHg 97%
    06:00 +21°C° 0 mm 0 mps 691 mmHg 96%
    07:00 +23°C° 0 mm 1 mps 691 mmHg 95%
    08:00 +25°C° 0.1 mm 1 mps 692 mmHg 88%
    09:00 +27°C° 0.1 mm 1 mps 692 mmHg 81%
    10:00 +28°C° 0.1 mm 1 mps 692 mmHg 75%
    11:00 +29°C° 0.7 mm 1 mps 692 mmHg 74%
    12:00 +29°C° 0.7 mm 1 mps 691 mmHg 73%
    13:00 +29°C° 0.7 mm 1 mps 690 mmHg 72%
    14:00 +28°C° 2.7 mm 1 mps 689 mmHg 78%
    15:00 +27°C° 2.7 mm 1 mps 689 mmHg 83%
    16:00 +26°C° 2.7 mm 1 mps 688 mmHg 88%
    17:00 +25°C° 1.6 mm 1 mps 689 mmHg 90%
    18:00 +24°C° 1.6 mm 1 mps 689 mmHg 92%
    19:00 +23°C° 1.6 mm 1 mps 689 mmHg 94%
    20:00 +23°C° 0.6 mm 1 mps 690 mmHg 95%
    21:00 +23°C° 0.6 mm 1 mps 690 mmHg 96%
    22:00 +21°C° 0.6 mm 0 mps 691 mmHg 97%
    23:00 +20°C° 0.2 mm 0 mps 691 mmHg 97%

    22 October, Tuesday

    Time Temperature Precipitation Wind Pressure Humidity
    00:00 +22°C° 0.2 mm 1 mps 690 mmHg 98%
    01:00 +22°C° 0.2 mm 1 mps 690 mmHg 98%
    02:00 +22°C° 0.2 mm 1 mps 690 mmHg 98%
    03:00 +22°C° 0.2 mm 1 mps 690 mmHg 98%
    04:00 +22°C° 0.2 mm 1 mps 690 mmHg 98%
    05:00 +22°C° 0.5 mm 1 mps 690 mmHg 97%
    06:00 +22°C° 0.5 mm 1 mps 690 mmHg 95%
    07:00 +22°C° 0.5 mm 1 mps 691 mmHg 93%
    08:00 +23°C° 0 mm 1 mps 691 mmHg 89%
    09:00 +22°C° 0 mm 0 mps 691 mmHg 85%
    10:00 +23°C° 0 mm 0 mps 691 mmHg 81%
    11:00 +23°C° 0 mm 0 mps 690 mmHg 80%
    12:00 +24°C° 0 mm 0 mps 690 mmHg 79%
    13:00 +24°C° 0 mm 0 mps 689 mmHg 78%
    14:00 +25°C° 0.1 mm 0 mps 689 mmHg 75%
    15:00 +25°C° 0.1 mm 0 mps 688 mmHg 72%
    16:00 +28°C° 0.1 mm 1 mps 688 mmHg 69%
    17:00 +24°C° 0.3 mm 0 mps 688 mmHg 76%
    18:00 +23°C° 0.3 mm 0 mps 688 mmHg 82%
    19:00 +21°C° 0.3 mm 0 mps 689 mmHg 89%
    20:00 +21°C° 0.1 mm 0 mps 689 mmHg 91%
    21:00 +20°C° 0.1 mm 0 mps 690 mmHg 93%
    22:00 +22°C° 0.1 mm 1 mps 690 mmHg 95%
    23:00 +22°C° 0 mm 1 mps 690 mmHg 95%
    Show more